Nausori, Fiji

2:04 PM FJT on January 22, 2017 (GMT +1200)
Nausori

Weather History for NFNA - December, 2012

Change the Weather History Date:

Wednesday, December 5, 2012

  Actual Average Record
Temperature  
Mean Temperature 80 °F -  
Max Temperature 86 °F - - ()
Min Temperature 75 °F - - ()
Cooling Degree Days 16    
Growing Degree Days 30 (Base 50)    
Moisture  
Dew Point 76 °F    
Average Humidity 88    
Maximum Humidity 100    
Minimum Humidity 69    
Precipitation  
Precipitation 0.24 in - - ()
Sea Level Pressure  
Sea Level Pressure 29.88 in    
Wind  
Wind Speed 3 mph ()    
Max Wind Speed 12 mph    
Max Gust Speed -    
Visibility 14.2 miles    
Events Rain    
T = Trace of Precipitation, MM = Missing Value Source: Averaged Metar Reports

Daily Weather History Graph

Daily Weather History Graph

Search for Another Location

Airport or City:

Trip Planner

Search our weather history database for the weather conditions in past years. The results will help you decide how hot, cold, wet, or windy it might be!

Date:

Astronomy

Dec. 05, 2012 Rise Set
Actual Time 6:21 AM FJST 7:31 PM FJST
Civil Twilight 5:57 AM FJST 7:55 PM FJST
Nautical Twilight 5:29 AM FJST 8:23 PM FJST
Astronomical Twilight 5:00 AM FJST 8:52 PM FJST
Moon No Moon Rise 11:31 AM FJST (12/5)
Length of Visible Light 13h 57m
Length of Day
13h 09m
Waning Gibbous, 67% of the Moon is Illuminated
Dec 5
Waning Gibbous
Dec 7
Last Quarter
Dec 13
New
Dec 20
First Quarter
Dec 28
Full

Hourly Weather History & Observations

Time (FJST) Temp. Heat Index Dew Point Humidity Pressure Visibility Wind Dir Wind Speed Gust Speed Precip Events Conditions
12:00 AM 77.0 °F - 75.2 °F 94% 29.92 in 24.9 mi Calm Calm - N/A   Mostly Cloudy
1:00 AM 77 °F - 76 °F 95% 29.92 in 12 mi Calm Calm - -   Partly Cloudy
1:00 AM 77.0 °F - 75.2 °F 94% 29.92 in 24.9 mi Calm Calm - N/A   Mostly Cloudy
2:00 AM 77.0 °F - 77.0 °F 100% 29.89 in 24.9 mi ESE 4.6 mph - N/A   Mostly Cloudy
3:00 AM 77.0 °F - 77.0 °F 100% 29.86 in 24.9 mi ESE 4.6 mph - N/A   Mostly Cloudy
4:00 AM 78 °F - 77 °F 95% 29.88 in 12 mi Calm Calm - - Rain Light Rain Showers
4:00 AM 77.0 °F - 77.0 °F 100% 29.86 in 18.6 mi Calm Calm - N/A Rain Light Rain Showers
5:00 AM 75.2 °F - 75.2 °F 100% 29.89 in 24.9 mi Calm Calm - N/A   Mostly Cloudy
6:00 AM 75.2 °F - 75.2 °F 100% 29.86 in 18.6 mi Calm Calm - N/A   Overcast
7:00 AM 76 °F - 75 °F 97% 29.91 in 12 mi Calm Calm - -   Partly Cloudy
7:00 AM 75.2 °F - 75.2 °F 100% 29.89 in 24.9 mi Calm Calm - N/A   Mostly Cloudy
8:00 AM 77.0 °F - 75.2 °F 94% 29.89 in 31.1 mi Calm Calm - N/A   Mostly Cloudy
9:00 AM 78.8 °F - 75.2 °F 89% 29.89 in 31.1 mi Calm Calm - N/A   Mostly Cloudy
10:00 AM 82 °F - 76 °F 78% 29.91 in 31 mi ENE 5.8 mph - -   Partly Cloudy
10:00 AM 82.4 °F 90.9 °F 77.0 °F 84% 29.89 in 31.1 mi East 5.8 mph - N/A   Mostly Cloudy
11:00 AM 82.4 °F 90.9 °F 77.0 °F 84% 29.89 in 31.1 mi East 5.8 mph - N/A   Mostly Cloudy
12:00 PM 82.4 °F 90.9 °F 77.0 °F 84% 29.89 in 31.1 mi East 5.8 mph - N/A   Mostly Cloudy
1:00 PM 83 °F - 74 °F 69% 29.88 in 31 mi East 5.8 mph - -   Partly Cloudy
1:00 PM 82.4 °F 89.5 °F 75.2 °F 79% 29.86 in 31.1 mi East 5.8 mph - N/A   Mostly Cloudy
2:00 PM 86.0 °F 95.1 °F 75.2 °F 70% 29.86 in 31.1 mi NE 9.2 mph - N/A   Mostly Cloudy
3:00 PM 86.0 °F 95.1 °F 75.2 °F 70% 29.83 in 31.1 mi NE 11.5 mph - N/A   Mostly Cloudy
4:00 PM 85 °F - 76 °F 69% 29.84 in 31 mi ENE 11.5 mph - -   Partly Cloudy
4:00 PM 84.2 °F 94.1 °F 77.0 °F 79% 29.83 in 31.1 mi ENE 11.5 mph - N/A   Mostly Cloudy
5:00 PM 84.2 °F 94.1 °F 77.0 °F 79% 29.83 in 31.1 mi East 8.1 mph - N/A   Mostly Cloudy
6:00 PM 82.4 °F 89.5 °F 75.2 °F 79% 29.83 in 31.1 mi East 8.1 mph - N/A   Mostly Cloudy
7:00 PM 82 °F - 78 °F 83% 29.87 in 31 mi Calm Calm - -   Partly Cloudy
7:00 PM 82.4 °F 90.9 °F 77.0 °F 84% 29.86 in 31.1 mi Calm Calm - N/A   Mostly Cloudy
8:00 PM 80.6 °F 88.1 °F 78.8 °F 94% 29.89 in 24.9 mi East 5.8 mph - N/A   Mostly Cloudy
9:00 PM 80.6 °F 88.1 °F 78.8 °F 94% 29.92 in 24.9 mi East 5.8 mph - N/A   Mostly Cloudy
10:00 PM 80 °F - 77 °F 89% 29.92 in 12 mi East 5.8 mph - -   Mostly Cloudy
10:00 PM 80.6 °F 87.1 °F 77.0 °F 89% 29.92 in 24.9 mi East 5.8 mph - N/A   Mostly Cloudy
11:00 PM 80.6 °F 88.1 °F 78.8 °F 94% 29.92 in 24.9 mi Calm Calm - N/A   Scattered Clouds